Total_Precipitation_Accumulation
0.05 0.11 0.32 0.58 1.07 1.52 1.28 0.65 0.49 0.35 0.32 0.44 0.42 0.31 0.34 0.44 0.61 0.94 0.47 0.35 0.18 0.09 0.10 0.19 0.22 0.17 0.18 0.20 0.22 0.24 0.22 0.22 0.21 0.21 0.20 0.22 0.23 0.22 0.22 0.25 0.30 0.32 0.34 0.35 0.37 0.35 0.31 0.29 0.29
0.07 0.17 0.39 0.77 1.44 1.76 1.09 0.49 0.37 0.30 0.36 0.43 0.35 0.28 0.32 0.30 0.26 0.23 0.27 0.35 0.16 0.07 0.08 0.10 0.16 0.15 0.14 0.17 0.19 0.22 0.22 0.22 0.23 0.22 0.21 0.22 0.24 0.27 0.29 0.29 0.30 0.33 0.35 0.31 0.31 0.30 0.26 0.24 0.25
0.11 0.19 0.47 0.83 1.10 1.17 0.61 0.30 0.26 0.27 0.38 0.41 0.33 0.29 0.32 0.36 0.33 0.26 0.20 0.21 0.14 0.08 0.08 0.11 0.13 0.13 0.13 0.14 0.17 0.19 0.20 0.21 0.22 0.21 0.21 0.22 0.25 0.31 0.32 0.33 0.32 0.35 0.33 0.30 0.32 0.29 0.26 0.24 0.25
0.14 0.26 0.46 0.65 0.73 0.60 0.35 0.24 0.23 0.27 0.38 0.33 0.29 0.38 0.43 0.48 0.31 0.25 0.20 0.15 0.12 0.10 0.10 0.12 0.14 0.13 0.12 0.13 0.15 0.17 0.20 0.22 0.23 0.20 0.22 0.24 0.30 0.32 0.31 0.31 0.33 0.33 0.30 0.29 0.28 0.26 0.25 0.25 0.27
0.16 0.35 0.55 0.63 0.54 0.36 0.27 0.24 0.25 0.25 0.24 0.31 0.35 0.53 0.59 0.55 0.34 0.38 0.38 0.24 0.11 0.11 0.13 0.15 0.17 0.15 0.14 0.15 0.16 0.18 0.19 0.20 0.22 0.20 0.22 0.24 0.30 0.31 0.30 0.29 0.30 0.29 0.26 0.27 0.28 0.28 0.25 0.28 0.31
0.20 0.32 0.42 0.46 0.35 0.23 0.25 0.24 0.21 0.21 0.26 0.36 0.46 0.48 0.63 0.57 0.46 0.64 0.57 0.41 0.22 0.17 0.20 0.23 0.24 0.22 0.19 0.17 0.17 0.19 0.21 0.22 0.24 0.25 0.24 0.25 0.28 0.30 0.30 0.30 0.32 0.29 0.27 0.26 0.28 0.29 0.29 0.31 0.36
0.17 0.22 0.27 0.26 0.23 0.19 0.19 0.18 0.19 0.20 0.34 0.45 0.50 0.59 0.78 0.86 0.66 0.65 0.72 0.67 0.43 0.40 0.49 0.42 0.30 0.26 0.27 0.26 0.25 0.23 0.26 0.28 0.28 0.29 0.27 0.29 0.29 0.31 0.32 0.34 0.35 0.34 0.32 0.31 0.29 0.28 0.31 0.34 0.39
0.10 0.12 0.14 0.12 0.12 0.15 0.12 0.14 0.18 0.21 0.29 0.46 0.57 0.72 1.02 0.97 0.80 0.80 0.85 0.98 0.74 0.59 0.61 0.56 0.43 0.38 0.30 0.26 0.27 0.29 0.32 0.35 0.32 0.30 0.30 0.31 0.30 0.33 0.37 0.38 0.45 0.46 0.48 0.50 0.47 0.41 0.39 0.44 0.49
0.05 0.11 0.10 0.08 0.07 0.09 0.08 0.11 0.17 0.22 0.29 0.36 0.58 0.77 0.80 0.73 0.92 0.99 1.13 1.36 1.32 1.04 0.92 0.78 0.52 0.42 0.40 0.34 0.32 0.41 0.43 0.41 0.42 0.44 0.42 0.53 0.68 0.66 0.77 0.68 0.78 0.75 0.78 0.78 0.79 0.74 0.72 0.74 0.65
0.04 0.07 0.06 0.04 0.04 0.06 0.06 0.08 0.15 0.31 0.47 0.73 0.98 0.95 0.73 0.74 1.05 1.24 1.41 1.68 1.72 1.56 1.36 1.11 0.82 0.64 0.57 0.48 0.52 0.62 0.62 0.73 0.75 0.91 0.95 1.19 1.42 1.35 0.99 1.06 1.29 1.34 1.35 1.29 1.31 1.44 1.29 1.13 1.00
0.02 0.03 0.03 0.04 0.03 0.04 0.04 0.07 0.10 0.23 0.67 1.18 1.42 1.33 1.13 1.00 1.24 1.60 1.91 2.21 2.00 1.71 1.54 1.41 1.19 0.97 0.78 0.80 0.81 0.89 1.03 1.32 1.21 1.14 1.25 1.63 1.52 1.25 1.12 1.25 1.54 1.82 1.81 1.76 1.84 2.00 1.65 1.73 1.95
0.01 0.01 0.01 0.02 0.02 0.02 0.03 0.05 0.14 0.25 0.65 0.92 1.17 1.26 1.29 1.30 1.37 1.59 1.91 2.19 2.39 2.28 2.03 1.81 1.65 1.44 1.37 1.27 1.16 1.06 1.11 1.24 1.25 1.38 1.29 1.62 1.76 1.63 1.58 1.73 1.82 2.02 2.24 2.61 2.48 2.62 2.48 2.39 2.23
0.01 0.01 0.01 0.01 0.02 0.02 0.03 0.08 0.18 0.28 0.55 0.61 0.71 0.86 1.16 1.39 1.71 2.00 2.16 2.51 2.63 2.72 2.50 2.35 2.21 2.12 2.08 1.91 1.71 1.36 1.40 1.37 1.40 1.60 1.59 1.71 1.98 2.07 2.15 2.14 2.08 1.97 2.30 2.71 2.93 2.65 2.93 2.95 2.55
0.01 0.01 0.01 0.01 0.02 0.03 0.04 0.10 0.20 0.34 0.49 0.56 0.64 0.84 1.11 1.45 1.72 2.14 2.44 2.85 2.85 2.89 3.00 3.09 2.96 2.84 2.82 2.60 2.40 2.12 1.91 1.99 1.94 1.95 2.07 2.22 2.42 2.58 2.63 2.49 2.41 2.20 2.21 2.50 2.71 2.70 2.93 2.82 2.67
0.01 0.02 0.05 0.05 0.05 0.06 0.13 0.23 0.38 0.51 0.56 0.75 0.84 1.09 1.26 1.56 1.90 2.01 2.21 2.47 2.79 3.06 3.50 3.75 3.79 3.70 3.66 3.53 3.18 2.80 2.62 2.63 2.76 2.83 2.83 2.76 2.85 3.09 2.97 2.75 2.42 2.30 2.35 2.50 2.47 2.49 2.56 2.42 2.34
0.01 0.04 0.11 0.12 0.08 0.09 0.16 0.45 0.58 0.62 0.73 0.94 0.99 1.23 1.52 1.61 1.95 2.08 2.12 2.33 2.91 3.37 3.91 4.20 4.36 4.58 4.46 4.39 4.04 3.54 3.28 3.17 3.12 3.18 3.17 3.06 3.12 3.01 2.94 2.63 2.25 2.32 2.42 2.41 2.41 2.27 2.33 2.35 2.40
0.04 0.07 0.13 0.20 0.12 0.13 0.20 0.50 0.64 0.67 0.86 1.02 1.17 1.21 1.37 1.59 2.01 2.30 2.43 2.59 3.10 3.68 4.34 4.72 5.19 5.48 5.37 5.07 4.56 4.08 3.94 3.72 3.51 3.46 3.36 3.19 2.98 2.84 2.90 2.57 2.44 2.41 2.42 2.28 2.09 2.34 2.47 2.46 2.48
0.04 0.06 0.13 0.23 0.16 0.15 0.27 0.49 0.71 0.79 0.95 1.12 1.18 1.17 1.31 1.59 1.81 2.17 2.45 2.86 3.32 3.75 4.50 5.11 5.64 5.84 5.59 5.03 4.58 4.40 4.22 3.90 3.64 3.32 3.06 2.78 2.64 2.48 2.63 2.40 2.33 2.45 2.49 2.30 2.31 2.52 2.52 2.26 2.33
0.04 0.06 0.15 0.22 0.15 0.17 0.30 0.48 0.70 0.87 1.02 1.08 1.26 1.26 1.45 1.70 1.85 2.23 2.58 3.02 3.46 3.97 4.68 5.29 5.68 5.65 5.43 5.04 4.63 4.32 3.85 3.54 3.26 2.96 2.73 2.49 2.24 2.14 2.40 2.22 2.44 2.37 2.24 2.07 2.06 2.15 2.15 1.89 2.13
0.05 0.09 0.19 0.22 0.15 0.15 0.31 0.52 0.80 0.89 0.88 0.91 1.13 1.24 1.32 1.51 1.80 2.14 2.65 2.94 3.27 3.75 4.27 4.73 4.71 4.38 4.22 4.14 4.03 3.75 3.78 3.64 3.48 3.23 2.98 2.58 2.41 2.25 2.09 2.20 2.07 2.03 2.09 1.90 1.80 1.94 1.94 1.69 1.97
0.06 0.08 0.15 0.21 0.23 0.24 0.34 0.68 0.92 0.95 0.86 0.82 0.86 0.98 1.11 1.25 1.44 1.77 2.33 2.62 2.79 3.20 3.54 3.61 3.49 3.30 3.32 3.32 3.26 3.30 3.54 3.58 3.50 3.34 3.08 2.79 2.64 2.50 2.33 2.16 1.99 1.93 1.79 1.80 1.79 1.84 1.84 1.75 1.74
0.09 0.06 0.07 0.10 0.20 0.42 0.48 0.85 1.13 1.23 1.15 0.94 0.85 0.96 1.04 1.14 1.20 1.48 1.81 2.02 2.25 2.44 2.60 2.61 2.68 2.69 2.68 2.70 2.66 2.57 2.61 2.75 2.96 3.20 3.24 3.19 2.98 2.73 2.45 2.24 2.03 1.83 1.67 1.79 1.54 1.61 1.82 1.88 1.63
0.06 0.05 0.06 0.10 0.15 0.30 0.42 0.67 1.09 1.35 1.50 1.17 0.95 0.88 0.83 0.97 1.22 1.42 1.51 1.63 1.72 1.75 1.88 1.94 2.21 2.51 2.60 2.63 2.72 2.60 2.32 2.27 2.32 2.46 2.61 2.63 2.62 2.50 2.20 2.09 2.03 1.84 1.65 1.61 1.57 1.73 1.73 1.69 1.60
0.07 0.10 0.16 0.24 0.37 0.60 0.58 0.63 1.00 1.22 1.35 1.10 0.91 0.86 0.74 0.75 0.93 1.15 1.38 1.42 1.38 1.37 1.53 1.73 2.02 2.40 2.61 2.65 2.61 2.54 2.44 2.38 2.27 2.23 2.27 2.16 2.15 2.12 2.01 1.93 1.93 1.79 1.65 1.61 1.57 1.66 1.72 1.75 1.77
0.08 0.16 0.48 0.82 1.15 1.19 0.69 0.68 0.92 0.96 0.90 0.91 0.77 0.72 0.76 0.69 0.69 0.70 0.87 1.09 1.06 1.03 1.17 1.45 1.66 1.92 2.12 2.21 2.22 2.12 2.21 2.32 2.19 2.06 1.96 1.87 1.74 1.69 1.71 1.78 1.85 1.70 1.63 1.69 1.79 1.74 1.66 1.73 1.81
0.08 0.12 0.36 0.60 0.77 0.89 0.73 1.08 1.21 0.89 0.75 0.65 0.54 0.51 0.57 0.53 0.50 0.48 0.53 0.67 0.88 0.88 0.92 1.04 1.30 1.47 1.64 1.74 1.87 1.95 2.10 2.22 2.16 2.30 2.09 1.93 1.66 1.54 1.59 1.75 1.82 1.73 1.64 1.59 1.82 1.80 1.79 1.85 1.83
0.09 0.08 0.13 0.21 0.35 0.60 0.86 1.10 1.08 0.87 0.83 0.63 0.45 0.40 0.41 0.40 0.39 0.40 0.47 0.65 0.66 0.63 0.67 0.78 1.00 1.14 1.30 1.49 1.67 1.74 1.71 1.72 1.84 2.01 2.00 1.86 1.79 1.63 1.71 1.76 1.90 1.94 1.96 1.94 2.02 1.94 1.96 2.11 2.09
0.10 0.09 0.10 0.16 0.29 0.47 0.77 1.13 1.20 1.06 0.93 0.75 0.64 0.47 0.38 0.38 0.38 0.38 0.41 0.48 0.48 0.46 0.57 0.78 0.94 0.96 1.22 1.53 1.70 1.60 1.57 1.47 1.60 1.66 1.70 1.77 1.74 1.75 1.78 1.78 1.82 1.91 1.99 2.01 2.10 2.06 2.13 2.31 2.32
0.14 0.11 0.11 0.14 0.17 0.31 0.66 0.87 0.77 0.82 0.76 0.68 0.61 0.51 0.45 0.42 0.42 0.43 0.42 0.42 0.52 0.45 0.51 0.66 0.80 0.95 1.22 1.53 1.72 1.69 1.54 1.53 1.62 1.54 1.53 1.67 1.73 1.72 1.76 1.76 1.72 1.70 1.80 1.97 2.11 2.09 2.24 2.36 2.41
0.14 0.14 0.14 0.20 0.19 0.22 0.36 0.58 0.46 0.55 0.66 0.62 0.47 0.39 0.38 0.32 0.35 0.33 0.30 0.33 0.32 0.32 0.43 0.74 1.08 1.43 1.58 1.81 2.02 2.01 1.72 1.56 1.48 1.35 1.36 1.57 1.76 1.79 1.75 1.72 1.69 1.63 1.70 1.93 2.08 2.20 2.45 2.56 2.48